Location: WHS+Essen
(51.3947°N, 6.9794°E)
Time: 07:44:36
(UTC+02:00)

ISS - Pass Details

Date: 24 March 2019
Orbit: 408 x 410 km, 51.6° (Epoch: 25 April)

Event Time Altitude Azimuth Distance (km) Brightness Sun altitude
Rises 21:02:14 0° 250° (WSW) 2,332 0.6 -20.2°
Reaches altitude 10° 21:04:20 10° 248° (WSW) 1,472 -0.5 -20.5°
Enters shadow 21:06:50 47° 231° (SW) 551 -3.1 -20.8°
